Retour au catalogue

CZ-4 DEB

ActifSSO
NORAD 27536·DEBRIS·🇨🇳 China

Lancé Oct 14, 1999 depuis Taiyuan Satellite Launch Center

Loading…

Prochains Passages (prochaines 24 heures)

TLE

FraisSource: Space-Track

Époque: Sep 14, 2026, 14:06 UTC

1 27536U 99057MP  26257.58764338  .00002344  00000-0  40552-3 0  9991
2 27536  98.4550 298.2011 0026636 159.7763 353.9219 14.69150596297859

Suivez CZ-4 DEB en temps réel avec AllMySat

Download on the App Store